Regional Weather Roundup
Issued by NWS Northern Indiana

Home | Current Version | Previous Version | Graphics & Text | Print | Product List | Glossary On
Versions: 1 2 3 4 5 6 7 8 9 10 11 12 13 14 15 16 17 18 19 20 21 22 23 24 25 26 27 28 29 30 31 32 33 34 35 36 37 38 39 40 41 42 43 44 45 46 47 48 49 50
661
ASUS43 KIWX 301600
RWRIWX

KIWX WEATHER ROUNDUP
NATIONAL WEATHER SERVICE NORTHERN INDIANA
1200 PM EDT SUN APR 30 2017

NOTE: "FAIR" INDICATES FEW OR NO CLOUDS BELOW 12,000 FEET WITH NO
SIGNIFICANT WEATHER AND/OR OBSTRUCTIONS TO VISIBILITY.

* THESE STATIONS ARE NOT UNDER NWS QUALITY CONTROL. THEY ALSO MAY NOT
  REPORT WEATHER SUCH AS PRECIPITATION OR FOG.

INZ001>027-301700-
NORTHERN INDIANA

CITY           SKY/WX    TMP DP  RH WIND       PRES   REMARKS
GARY*          DRIZZLE   52  50  93 CALM      29.79R
SOUTH BEND     CLOUDY    48  48 100 E9        29.80F
GOSHEN         CLOUDY    53  49  86 E16       29.80F FOG
MONTICELLO*    MOSUNNY   64  61  88 S15       29.77R
ANGOLA*        CLOUDY    48  39  71 SE12      29.85F
FORT WAYNE     CLOUDY    56  54  93 E10       29.84F FOG
PERU/GRISSOM   CLOUDY    66  66 100 S22G31    29.79R

$$
INZ028>050-301700-
CENTRAL INDIANA

CITY           SKY/WX    TMP DP  RH WIND       PRES   REMARKS
LAFAYETTE      LGT RAIN  65  63  93 S9        29.77R
KOKOMO*        CLOUDY    70  63  78 S26G35    29.81R
MUNCIE*        CLOUDY    73  63  70 S15G29    29.84R
INDIANAPOLIS   LGT RAIN  68  64  87 S17       29.85R

$$
MIZ043>046-050>051-056>058-064>065-071>073-077>080-301700-
SOUTHWEST LOWER MICHIGAN

CITY           SKY/WX    TMP DP  RH WIND       PRES   REMARKS
BATTLE CREEK   LGT RAIN  46  45  96 E12G21    29.87F
BENTON HARBOR  HVY RAIN  48  46  93 E15G21    29.80F VSB 3/4
COLDWATER*     DRIZZLE   47  47 100 E9        29.86F
HILLSDALE*     LGT RAIN  46  45  93 E12G17    29.88F
HOLLAND        RAIN      44  42  93 E22G28    29.85F FOG
GRAND RAPIDS   RAIN      43  43 100 E23       29.90F FOG
KALAMAZOO      LGT RAIN  47  43  86 E8G20     29.85F FOG
STURGIS*       CLOUDY    48  47  97 E13G18    29.83F
THREE RIVERS*  CLOUDY    47  46  96 E8        29.84F

$$
OHZ001>008-015>018-024>025-301700-
NORTHWEST OHIO

CITY           SKY/WX    TMP DP  RH WIND       PRES   REMARKS
DEFIANCE       LGT RAIN  52  51  97 NE9       29.89F FOG
FINDLAY        CLOUDY    73  64  73 S16       29.88F
TOLEDO EXPRESS LGT RAIN  52  50  93 E12       29.91F
TOLEDO METCALF CLOUDY    54  52  93 NE12      29.93F
LIMA           CLOUDY    73  66  78 S20G30    29.89R

$$
AND FOR LAKE MICHIGAN COASTAL AND OPEN LAKE BUOY OBSERVATIONS

STATION/POSITION TEMP    WIND        PRES    VSBY  WAVE
                 AIR SEA DIR/SP/G                  HT/PER
                 (F)     (DEG/KT/KT) (MB)    (MI)  (FT/S)
CALUMET HARBOR    47      10/  4/  6 1008.5R
MICHIGAN CITY     49      90/  9/ 12   N/A
BURNS HARBOR      51     110/ 12/ 16 1007.8F
SOUTH LAKE BUOY   42 40   60/ 19/ 23 1010.0          4/ 5
4 MI NW BRIDGMAN  48 46  130/ 12/ 17 1009.3F         2/ 3
MICHIGAN CITY     49 48                N/A           3/ 6

$$
&&




USA.gov is the U.S. government's official web portal to all federal, state and local government web resources and services.